Dewpoint
35 30 28 29 30 29 28 27 26 26 27 26 23 20 20 21 20 19 18 21 23 27 33 50 53 55 56 58 60 59 59 59 59 58 55 55 55 56 56 55 56 56 56 58
31 29 30 31 29 29 28 26 26 28 28 26 25 24 24 24 23 22 20 19 23 30 35 38 51 55 56 57 59 59 59 59 59 58 56 55 55 57 57 56 55 56 57 58
31 30 32 31 29 28 27 27 26 26 28 27 25 22 23 23 26 24 23 20 18 26 34 32 48 53 56 56 58 59 59 59 59 59 58 57 56 57 56 56 55 55 57 57
31 32 31 29 27 28 24 30 29 28 26 23 25 18 23 23 19 23 23 22 21 18 19 21 39 54 56 57 57 58 59 59 59 59 58 57 55 54 56 56 56 55 56 57
29 32 33 29 30 30 28 32 30 29 28 26 24 18 21 21 18 19 21 20 20 21 20 20 21 43 55 57 58 58 58 59 60 60 59 58 58 57 55 57 56 55 55 56
32 35 35 32 33 33 33 32 30 29 29 14 22 21 19 18 21 30 32 32 33 31 32 30 28 25 37 56 57 58 57 58 59 60 60 59 58 57 56 56 57 57 56 55
28 32 34 33 31 33 33 29 10 13 17 8 21 21 20 28 31 31 31 32 33 35 35 37 38 39 34 35 56 57 57 57 58 59 59 59 59 58 57 57 56 57 57 56
24 17 32 33 32 31 34 31 21 12 14 16 22 17 22 31 32 33 32 34 35 36 36 37 38 43 46 47 49 57 57 57 58 58 58 59 59 59 58 58 57 57 57 57
25 17 31 35 35 35 30 24 32 20 17 17 20 18 29 30 31 32 32 32 33 36 37 38 39 39 42 44 46 48 54 57 57 58 58 58 58 58 58 58 58 57 58 57
28 21 26 33 33 35 35 34 26 21 8 8 16 17 22 28 30 30 30 30 32 35 36 38 39 39 40 42 45 47 51 58 57 58 58 58 58 58 59 59 59 57 57 57
33 30 20 30 29 30 32 29 29 28 25 17 10 15 31 31 31 31 30 34 34 35 36 37 37 38 39 41 44 46 49 55 57 58 58 58 58 58 59 59 60 59 59 57
35 31 22 18 34 33 33 33 33 24 20 23 22 18 34 30 31 33 33 34 33 35 35 35 35 37 37 39 42 43 45 46 49 52 58 59 59 59 59 59 60 60 60 61
31 28 15 15 26 28 27 29 30 30 30 24 21 20 31 30 31 32 32 32 32 33 34 33 32 34 35 37 39 40 41 43 43 46 48 47 48 50 57 59 60 60 60 60
33 28 25 19 25 30 23 29 29 29 19 23 24 24 27 29 30 32 32 32 32 32 32 32 32 33 33 36 37 37 37 39 41 41 41 42 43 44 46 47 49 50 54 57
30 26 23 26 29 29 30 30 28 24 26 23 24 25 30 31 31 32 32 33 32 32 32 32 32 32 32 33 35 35 35 36 36 37 38 39 40 41 41 42 43 44 45 46
27 21 27 19 28 29 27 30 24 22 28 28 28 26 34 35 35 31 32 32 31 31 32 31 31 31 31 32 32 33 33 33 34 34 35 35 37 37 37 38 40 41 41 42
24 24 23 14 26 24 23 25 27 29 29 30 22 30 35 33 32 30 30 31 31 30 30 30 30 30 31 31 32 31 32 33 32 33 33 33 34 34 35 36 37 37 37 38
24 22 26 22 19 14 21 32 30 30 29 32 33 33 33 34 33 29 28 28 28 30 29 30 29 28 28 28 30 31 30 30 31 30 31 32 32 33 33 34 34 35 36 36
26 24 20 19 22 21 25 31 30 28 26 32 31 34 35 36 33 28 27 28 26 26 28 30 30 29 27 27 28 28 27 28 28 28 30 30 31 32 32 32 33 33 34 34
26 26 22 12 21 11 23 31 32 32 23 33 34 30 28 26 22 24 27 28 27 26 27 27 28 27 26 26 27 26 26 26 26 27 28 29 30 31 31 32 32 33 33 33
5 14 19 10 20 21 28 32 33 22 23 33 32 29 28 24 24 27 27 27 27 26 27 27 27 25 25 25 26 26 25 24 25 27 28 28 29 30 31 31 31 32 32 33
13 14 17 19 20 15 30 31 26 28 31 31 30 30 29 27 27 27 26 26 25 24 25 26 25 24 24 24 24 24 23 23 24 26 27 27 28 29 30 31 31 32 32 31
7 17 17 19 19 27 31 28 31 32 29 30 30 30 30 28 27 27 26 25 24 23 23 25 23 23 22 21 22 22 21 21 22 25 25 26 26 28 29 30 30 30 29 28
16 23 19 14 14 26 28 29 30 31 30 29 30 30 30 27 26 26 26 25 25 23 20 20 23 19 16 16 19 17 19 19 19 21 23 25 26 26 28 28 29 29 29 27
16 21 15 18 20 22 24 28 28 30 28 28 29 29 28 28 27 26 26 26 24 22 17 18 24 14 12 12 12 12 15 16 19 21 23 23 24 26 27 28 28 28 28 27
22 18 15 9 15 10 8 22 29 29 27 27 28 26 26 25 25 24 23 21 20 17 14 12 18 10 9 6 7 10 10 12 14 21 21 23 24 25 26 25 25 27 27 26
Lifted_Index
5 5 5 5 5 5 5 5 5 6 7 7 7 7 7 7 7 6 5 4 4 4 4 2 0 -1 -1 -1 -1 -2 -2 -2 -1 -1 0 1 1 1 1 1 2 3 3 3
5 5 5 6 5 5 5 5 5 5 6 6 6 6 6 7 7 7 6 5 4 4 4 3 1 -0 -1 -1 -1 -1 -2 -2 -1 -1 0 1 1 1 1 1 2 3 3 3
5 5 5 5 5 5 4 4 4 5 5 6 5 5 5 6 7 7 7 6 5 5 5 4 3 0 -1 -1 -1 -1 -1 -1 -1 -1 -0 1 1 2 2 2 2 3 3 3
5 5 5 5 4 4 4 4 4 4 4 4 4 4 4 5 6 7 7 7 6 6 6 5 4 2 0 -1 -1 -1 -1 -1 -1 -0 -0 0 1 1 1 1 2 3 3 3
5 5 5 4 4 4 4 4 4 4 4 3 3 4 4 5 6 6 7 7 7 7 7 7 7 6 3 1 -0 -1 -0 -0 -0 -0 0 0 1 1 1 1 1 2 3 3
4 4 4 4 4 4 4 4 3 3 3 3 3 4 5 5 6 6 7 7 7 7 8 8 8 8 6 3 1 -0 -0 0 0 0 0 0 1 1 1 1 1 2 2 3
3 3 4 4 4 4 4 4 2 2 1 2 3 4 4 5 6 6 7 7 7 7 7 7 7 7 7 5 3 1 0 0 0 0 0 0 0 0 0 1 1 1 2 2
2 3 3 4 4 4 4 4 3 1 1 2 3 3 4 5 5 6 6 7 7 7 8 8 7 7 7 6 4 2 1 0 0 0 0 0 0 -0 -0 0 0 1 1 1
3 3 4 4 4 4 4 4 3 2 2 1 2 3 3 4 5 5 6 6 6 7 7 8 8 7 7 6 5 4 1 0 -0 0 0 0 -0 -0 -0 -0 0 0 1 1
3 3 4 4 4 4 4 4 4 3 2 1 1 2 3 4 5 5 5 6 6 7 7 8 8 8 7 6 5 4 2 -0 -1 -0 -0 0 -0 -0 -0 -0 0 0 -0 -0
5 4 3 4 4 4 4 4 4 4 3 2 1 3 4 5 5 6 6 7 7 7 8 8 8 7 6 6 5 3 1 -1 -1 -1 -1 -0 -0 -0 -0 -0 -0 -0 -0 -0
5 4 3 3 4 4 4 4 4 4 3 3 2 3 5 6 6 7 7 8 9 9 9 8 7 6 5 5 4 2 1 -0 -1 -1 -1 -1 -1 -1 -1 -0 -0 -0 -0 -0
6 4 3 2 3 4 4 4 5 5 4 3 3 3 5 6 6 7 8 8 9 9 9 8 7 5 4 4 3 2 1 -0 -0 -1 -1 -1 -1 -1 -1 -1 -0 -0 -0 -0
7 5 3 2 3 3 4 4 5 5 4 3 3 4 5 6 6 7 8 8 8 8 8 8 7 6 5 4 2 1 0 -0 -0 -0 -0 -0 -0 -0 -0 -0 -0 -0 -1 -1
7 5 3 2 3 3 4 4 5 4 4 4 4 5 6 7 7 7 8 7 7 8 8 8 8 7 6 5 3 2 1 0 1 1 0 0 0 1 1 1 1 0 -0 -0
7 5 3 2 3 3 3 4 4 4 4 4 4 5 7 7 8 8 8 8 8 9 9 9 9 9 8 7 6 4 3 3 3 3 2 2 2 2 2 2 2 2 1 1
7 5 3 2 2 2 2 3 4 4 4 5 5 6 7 8 8 8 8 9 10 10 11 11 11 11 11 10 9 8 8 8 7 7 6 6 5 5 5 5 5 4 4 4
7 6 4 2 2 2 2 3 4 4 4 5 6 7 8 8 8 9 10 10 11 11 11 12 12 12 13 12 12 12 11 11 11 11 10 9 9 8 8 9 8 8 8 7
9 7 5 3 2 2 2 3 4 4 4 5 6 7 8 8 8 9 10 11 11 11 11 12 12 12 13 13 13 13 13 13 13 13 13 12 12 12 12 12 12 12 11 10
8 7 6 4 3 2 2 3 4 3 4 5 7 8 8 8 8 9 10 10 10 10 11 11 11 12 13 13 13 13 13 13 13 14 14 14 14 14 14 14 14 14 13 13
6 6 5 5 3 3 3 3 3 3 4 5 7 7 8 8 8 9 10 10 11 11 11 11 11 12 12 13 13 12 12 13 13 13 13 13 13 13 13 14 13 13 13 13
5 5 5 5 4 4 4 4 3 3 4 5 6 7 8 8 9 9 10 11 11 11 11 12 12 12 12 13 13 12 12 12 12 12 13 12 12 12 13 13 13 13 12 12
6 6 5 5 5 6 6 5 4 4 5 6 7 7 8 8 9 9 10 11 11 11 11 11 12 12 12 12 12 12 12 12 12 12 13 13 12 12 13 13 13 12 12 12
8 8 6 6 6 7 7 7 6 6 6 6 7 8 8 9 9 10 10 10 10 11 11 11 11 11 11 12 12 12 12 12 12 13 13 13 13 13 13 13 13 13 13 13
9 8 7 6 7 7 8 8 8 7 7 7 7 8 9 10 10 10 10 10 10 10 11 11 11 11 11 11 12 12 12 12 12 13 13 13 13 13 13 13 13 13 14 14
8 7 6 6 7 7 8 8 8 8 7 7 8 9 10 10 11 11 11 10 10 10 11 11 11 11 11 12 12 12 12 12 12 12 13 13 13 13 13 13 13 14 14 14